User: anonymous   Login
Location: Caltech
(34.1382°N, 118.1253°W)
Time: 00:21:51
(UTC-07:00)
Language:

FENGYUN 3A - Orbit

View from above orbital plane
View from above orbital plane
View from above satellite
View from above satellite

Ground track
Ground track

The orbit data is extracted from the following two-line orbital elements,

1 32958U 08026A   15240.70823757 -.00000474  00000-0 -20472-3 0  9999
2 32958 098.4960 288.3356 0010659 035.6405 324.5480 14.19571113375918
Epoch (UTC): 28 August 2015 16:59:51
Eccentricity: 0.0010659
inclination: 98.4960°
perigee height: 819 km
apogee height: 834 km
right ascension of ascending node: 288.3356°
argument of perigee: 35.6405°
revolutions per day: 14.19571113
mean anomaly at epoch: 324.5480°
orbit number at epoch: 37591

The dashed part of the orbit path shows where the satellite is in the earth's shadow,  

DLR